RH
7 7 6 6 5 5 5 5 5 5 5 5 4 4 4 4 3 3 3 3 3 2 3 3 3 3 2 3 2 2 2 2 2 1 3 5 10 10 10 17 19 26 35 39 42 45 47 42 29 21 24 30 32 38 48 53 53 56 62 65 65 63 65 68 61 66 82 77 74 83 82 83 75 57 53 54 55 57 59 61 54 46 46 44 43 44 42 42
8 8 8 7 7 6 6 5 5 5 5 5 5 5 4 4 4 4 4 3 3 2 3 3 3 3 2 3 2 2 2 1 2 2 2 2 5 5 6 12 15 18 25 33 42 47 47 46 41 34 33 33 35 42 53 58 56 55 57 57 57 58 63 67 66 72 79 78 81 81 76 79 75 61 57 55 53 60 64 65 59 47 44 41 38 38 38 39
7 8 8 8 8 7 8 7 6 6 5 5 5 5 5 5 5 4 4 3 3 3 3 3 3 3 3 3 3 2 2 2 2 1 2 2 2 3 4 6 9 13 19 25 33 42 45 42 39 40 40 37 39 43 49 57 56 53 52 50 52 55 59 65 73 80 77 78 81 78 77 77 73 63 58 58 60 69 73 69 64 50 42 39 35 32 31 36
5 5 6 6 6 6 7 7 7 7 6 6 5 6 5 6 6 5 5 4 4 4 3 3 3 3 3 3 3 2 2 2 2 2 1 2 2 2 2 3 5 8 13 18 23 32 38 38 36 37 37 35 37 37 40 51 54 53 47 47 53 52 63 75 80 85 81 78 78 77 79 72 68 64 58 63 66 73 79 72 65 54 45 41 35 29 24 29
5 5 5 5 5 5 5 5 6 7 7 7 7 6 6 6 6 6 5 5 4 4 4 3 3 3 3 3 3 3 3 2 2 2 1 2 2 2 2 2 3 4 7 11 17 23 27 32 36 36 36 34 34 33 38 45 46 50 46 48 54 50 63 76 77 90 92 84 81 79 75 67 69 68 63 67 64 64 71 68 62 53 46 43 38 32 24 23
4 4 4 4 4 4 5 5 5 5 5 6 7 7 7 6 6 6 6 6 5 4 4 4 4 3 3 3 3 3 3 3 2 2 2 2 2 2 2 2 2 3 4 6 11 15 18 24 30 34 36 35 33 35 39 40 39 45 47 49 50 49 59 66 76 95 97 90 86 82 74 70 71 68 69 71 68 69 69 66 58 48 44 40 36 33 25 20
4 4 4 4 4 4 4 4 4 4 5 5 5 5 6 7 6 6 6 6 6 5 5 5 4 4 3 3 3 4 3 3 3 3 2 2 2 2 2 2 2 2 3 4 6 8 12 17 25 34 36 35 34 35 35 35 35 37 43 47 45 49 56 60 78 92 91 93 91 85 77 75 72 65 72 72 68 74 70 66 59 48 47 36 27 28 23 17
4 4 4 4 3 4 3 4 4 4 4 4 5 4 5 5 6 6 7 7 6 6 5 5 5 4 4 4 3 4 3 3 4 3 2 2 3 2 2 2 2 2 2 3 4 5 7 10 19 30 33 35 36 35 33 31 31 31 36 46 46 51 57 59 76 83 87 95 89 84 79 76 77 67 72 74 68 70 66 65 62 53 50 33 21 23 20 19
4 4 4 4 4 4 3 4 3 3 3 3 4 4 4 4 5 5 6 7 7 6 6 5 6 5 5 4 4 4 3 3 4 4 3 2 3 2 2 2 2 2 2 2 2 4 5 6 12 20 30 38 39 35 31 28 30 34 37 42 42 48 56 58 69 74 80 93 87 82 77 73 78 72 75 78 71 72 67 64 62 57 53 41 30 25 20 19
4 4 4 4 4 4 4 4 4 4 3 3 3 3 4 4 4 4 5 5 6 7 7 6 6 6 6 5 5 4 4 3 4 5 4 3 2 2 2 2 2 2 2 2 2 3 4 5 8 13 25 33 37 36 30 26 31 39 38 35 35 40 53 56 62 65 67 84 87 80 75 72 73 71 75 78 73 72 66 63 65 63 60 52 42 33 26 21
3 3 3 3 3 3 3 4 4 4 4 4 4 3 3 3 3 4 4 4 5 6 6 7 7 6 6 7 6 5 4 4 4 5 6 4 3 3 3 2 2 2 2 2 2 3 2 4 6 9 14 18 27 31 26 25 29 34 33 29 28 32 46 51 59 67 64 74 81 78 78 78 74 69 73 76 75 73 64 67 74 73 70 61 49 42 36 28
4 4 4 4 4 3 3 3 3 3 3 4 4 4 3 3 3 3 3 4 4 4 5 6 7 7 7 8 8 5 4 4 4 5 7 7 4 3 3 2 2 2 2 2 2 3 2 3 5 6 9 11 18 23 23 26 25 28 28 26 24 24 35 42 55 75 79 78 75 73 77 74 73 68 69 74 75 75 68 69 71 68 74 69 55 48 42 36
5 5 4 4 4 4 4 3 3 3 3 3 3 3 3 3 3 3 3 3 3 3 4 4 5 7 7 10 10 5 5 5 4 6 7 9 7 3 4 3 3 2 2 2 2 3 2 2 3 4 7 9 13 15 20 28 28 27 24 22 24 22 26 33 48 71 85 86 73 70 75 72 74 68 68 76 76 80 78 73 68 61 70 74 61 50 44 38
7 6 6 6 5 5 5 4 4 4 3 3 3 3 3 3 3 3 3 3 3 3 3 3 4 5 6 12 12 6 6 6 5 8 8 9 9 6 4 3 3 3 2 2 2 2 2 2 2 3 5 7 10 10 14 22 24 25 21 18 18 18 22 28 42 60 74 81 72 69 77 79 76 66 66 75 73 82 89 84 80 71 69 75 66 53 47 40
8 7 7 7 7 7 6 6 5 5 4 4 3 3 3 3 3 3 3 3 3 3 3 3 4 4 4 12 13 7 7 7 8 10 7 7 9 8 6 4 4 3 3 3 2 2 2 2 2 2 3 5 7 8 9 12 13 15 14 12 12 14 22 27 35 45 56 73 75 72 85 89 78 65 65 70 67 75 87 86 84 78 73 77 70 55 50 42
8 7 7 7 7 7 7 7 7 6 6 5 5 4 3 3 2 3 3 3 3 3 3 2 3 3 3 8 12 10 9 9 8 8 7 8 10 10 7 5 5 4 3 3 2 2 2 2 2 2 2 3 4 6 7 7 7 9 8 9 11 12 19 27 30 35 45 64 70 68 85 97 88 73 69 77 77 70 71 76 80 83 79 78 74 61 54 44
8 8 8 7 7 7 7 7 7 7 7 6 6 6 5 4 3 3 2 2 3 3 3 3 3 3 3 5 8 10 11 10 8 6 8 10 11 12 10 6 6 5 4 4 3 2 2 2 2 2 2 2 3 3 5 5 4 5 6 8 12 13 18 26 28 36 44 50 53 56 76 97 96 80 68 76 79 65 65 78 87 92 84 77 75 67 57 49
9 8 8 8 7 7 7 7 6 6 7 6 7 7 6 6 4 4 3 3 3 2 3 3 3 3 3 4 4 7 10 11 11 9 9 12 13 14 14 9 5 6 5 4 3 2 2 2 2 2 2 2 2 2 3 3 2 4 6 8 12 14 19 23 26 38 46 43 46 56 73 94 97 80 65 65 59 53 66 81 90 95 88 79 76 69 61 55
8 8 8 8 7 7 7 7 6 6 6 6 6 6 6 6 6 6 5 5 4 3 3 2 3 3 3 4 4 5 6 10 13 12 11 13 16 16 18 14 7 6 6 5 4 3 3 2 2 2 2 2 2 2 2 2 3 4 6 10 12 15 20 24 25 34 45 48 52 58 70 90 95 83 71 63 50 43 60 79 90 97 96 87 78 70 64 59
7 6 6 6 6 6 6 6 6 6 6 6 6 6 5 6 6 6 6 6 6 5 3 2 2 2 3 3 4 4 4 6 10 14 14 14 17 18 19 18 12 7 5 6 5 4 4 2 2 2 2 2 2 2 2 2 3 3 6 9 12 15 22 29 29 30 39 52 58 57 69 92 97 89 79 74 62 44 55 82 92 97 100 92 79 68 63 60
6 6 6 5 5 5 5 5 5 6 5 6 5 5 5 5 5 5 5 6 7 6 4 4 3 2 4 4 4 4 4 4 6 12 15 14 15 16 17 18 15 10 7 7 7 5 5 3 3 3 2 2 2 3 3 2 3 3 4 7 11 14 20 33 41 41 36 39 57 63 71 90 92 85 81 78 69 47 54 79 87 93 95 88 80 69 62 61
5 5 5 5 4 4 4 4 4 5 5 5 5 5 5 5 5 5 5 5 6 6 5 6 5 4 6 7 5 3 3 4 4 6 11 14 14 13 15 17 15 15 13 9 7 5 4 3 4 3 3 3 2 3 2 3 3 2 4 6 9 11 18 34 49 63 54 36 56 77 78 86 86 85 82 72 62 48 51 63 72 86 86 79 84 76 64 62
5 5 4 4 4 4 4 4 3 4 4 4 4 4 4 4 5 4 4 5 5 5 5 5 6 5 7 9 6 3 2 4 4 4 6 11 14 15 16 16 15 18 17 11 7 6 4 4 5 4 3 3 2 3 2 3 3 2 3 4 6 8 17 29 39 70 83 56 60 81 82 85 87 86 82 72 64 55 55 57 64 79 75 71 82 78 68 66
4 3 3 3 3 3 3 3 3 3 3 3 3 3 4 4 4 4 4 4 4 5 5 5 5 5 6 9 7 3 2 3 3 5 5 6 12 16 17 16 17 18 17 15 12 8 7 7 8 6 5 4 3 3 2 2 3 3 3 2 5 7 13 23 34 68 93 78 75 86 84 86 89 86 79 75 74 64 57 55 58 70 68 66 74 72 69 68
3 3 3 2 2 3 3 2 3 3 2 3 2 2 3 3 3 4 4 4 4 4 4 5 5 5 5 7 8 5 3 3 3 4 5 4 7 12 16 18 18 17 17 19 19 14 11 10 9 7 6 5 3 3 2 2 2 2 3 2 3 6 11 20 39 72 89 80 80 85 83 86 90 88 79 77 81 71 59 51 49 56 58 59 63 65 69 69
2 2 3 2 3 3 3 4 4 3 3 2 2 2 2 2 2 3 3 3 3 4 4 4 4 5 5 5 7 7 5 4 5 5 4 5 5 7 12 16 17 18 17 20 21 18 16 13 10 9 7 6 4 3 3 3 3 2 3 3 2 5 11 21 40 66 77 70 74 78 77 82 88 87 80 76 78 71 60 51 44 45 50 54 56 60 65 64
3 3 4 4 5 5 6 6 5 5 4 3 3 3 2 2 2 2 3 3 3 3 4 4 4 4 5 5 5 7 7 6 8 8 6 7 8 6 7 12 16 18 19 21 20 17 18 16 12 10 9 7 5 4 3 2 3 2 2 3 3 3 8 22 37 51 61 66 73 76 71 74 81 80 76 74 71 67 60 50 40 38 43 50 52 55 59 61
4 5 5 6 5 5 6 6 7 6 5 5 5 4 4 4 3 3 3 3 3 3 3 4 4 4 4 5 4 5 7 8 10 11 10 11 11 9 6 7 11 15 18 20 16 15 19 19 15 13 11 8 6 5 5 3 2 2 3 2 3 3 5 19 36 45 58 69 73 76 73 71 75 74 71 72 71 71 65 49 36 31 35 44 47 47 53 63
6 7 7 8 9 9 9 8 8 7 6 6 6 6 6 5 5 4 4 4 3 3 4 5 7 8 6 5 5 5 5 8 11 12 12 13 14 13 10 8 9 12 16 19 17 19 22 20 20 20 15 10 8 8 6 5 3 3 3 2 3 4 2 13 33 48 62 69 67 72 76 74 74 73 70 70 69 64 55 44 36 31 33 39 40 41 52 64
9 10 10 11 12 13 14 12 11 9 8 7 7 8 8 8 7 5 5 6 5 5 4 6 9 13 14 11 7 6 5 6 10 12 12 12 15 16 15 14 12 10 11 16 17 19 23 24 23 22 18 14 13 13 10 6 5 4 3 3 2 4 3 7 28 54 67 66 62 67 73 71 70 72 70 67 63 52 42 42 44 39 35 34 31 36 52 63
10 9 9 10 10 11 11 11 12 11 10 10 10 11 10 10 9 6 7 8 8 7 5 7 8 14 25 24 13 7 7 8 9 11 12 12 15 17 17 19 16 10 9 13 17 19 23 25 22 19 20 19 17 16 14 10 8 4 3 4 2 3 5 4 22 54 68 62 58 63 70 66 55 57 68 71 64 50 39 42 48 44 36 27 25 39 55 62
8 9 10 11 10 11 10 10 10 10 11 12 13 15 15 15 13 10 9 9 10 8 6 8 7 16 32 29 18 12 10 14 14 11 11 11 12 14 14 16 16 11 8 7 12 18 22 22 21 22 22 21 19 17 16 14 11 6 3 4 3 3 4 4 13 39 60 62 57 58 64 60 41 36 55 68 59 42 35 41 50 51 39 23 23 43 59 62
15 16 17 17 16 14 14 14 14 13 14 14 16 18 18 20 18 16 13 12 13 10 8 9 7 27 50 36 22 23 19 20 20 13 13 12 11 12 13 17 19 15 11 10 12 14 18 23 23 23 22 21 20 18 17 16 13 8 4 3 4 4 3 4 5 16 38 49 49 53 53 43 32 23 29 41 41 34 33 42 53 57 46 28 21 35 52 60
22 23 25 28 29 26 21 20 21 22 24 25 27 27 26 25 23 22 20 15 16 14 13 11 5 34 75 63 41 41 34 28 24 16 15 15 14 15 16 20 23 20 16 17 18 14 16 22 22 21 24 26 25 20 18 18 16 10 6 4 4 3 2 4 3 3 13 20 31 47 41 22 21 17 11 24 39 40 35 36 49 61 57 36 18 24 44 57
21 22 27 34 41 40 32 30 32 31 30 28 26 25 24 25 24 27 27 23 23 20 18 16 4 21 74 92 75 63 50 38 28 19 16 18 19 18 16 21 30 39 41 35 27 23 19 18 22 29 34 34 30 23 20 22 19 13 9 6 4 4 2 3 4 2 3 4 12 27 22 10 14 12 9 27 43 43 34 26 36 56 60 38 13 17 39 53
23 25 32 39 43 42 37 36 32 25 21 17 16 17 17 19 18 21 28 32 34 30 23 21 10 7 48 95 99 81 67 52 33 24 22 23 26 24 17 19 27 37 44 35 24 25 21 14 24 40 42 37 33 29 25 22 19 17 13 8 4 4 4 3 3 3 3 3 4 7 6 6 11 8 12 28 34 33 29 18 17 34 47 33 9 7 21 32
27 29 35 40 39 40 40 33 22 17 16 16 18 19 20 22 19 20 32 43 43 37 27 21 16 5 23 77 107 95 85 72 45 36 39 36 36 36 28 24 28 31 29 22 17 18 16 9 19 37 38 34 35 37 32 25 22 19 14 9 7 6 5 4 4 4 4 3 2 3 4 4 6 5 10 22 25 23 21 11 6 16 28 24 9 3 6 9
36 36 37 38 40 44 40 25 17 18 19 22 25 27 27 26 27 35 50 56 48 38 31 22 19 11 7 45 94 104 96 88 66 55 62 57 48 51 49 41 40 36 25 18 19 18 14 9 13 24 30 33 40 45 40 30 24 20 14 12 13 9 6 4 4 4 3 3 3 3 3 3 4 2 5 12 14 13 13 9 5 7 12 14 10 5 4 4
48 44 39 40 46 48 37 22 20 21 24 29 31 31 32 28 36 57 65 59 48 36 31 24 19 18 7 15 61 98 102 97 85 77 82 77 65 69 76 69 59 48 30 18 22 23 16 11 12 17 28 44 56 56 45 32 24 22 20 20 19 14 8 5 4 3 3 3 3 3 3 3 3 2 2 5 5 5 7 7 5 4 5 7 7 4 2 6
59 50 44 46 52 49 35 24 24 25 28 34 34 32 31 31 53 83 76 54 45 35 30 28 19 19 16 4 26 75 102 102 95 94 97 91 83 86 92 90 81 71 52 27 20 23 17 11 12 15 27 53 69 59 41 31 27 25 23 23 22 20 15 12 8 5 4 4 3 3 3 2 2 3 3 5 5 4 4 5 7 7 4 3 5 4 1 9
67 57 52 52 54 47 35 27 27 30 32 36 38 32 29 43 75 100 85 55 46 39 30 29 21 15 17 9 8 43 89 104 99 99 102 98 95 98 100 97 91 86 73 44 21 21 21 11 10 18 29 49 61 48 35 34 34 30 26 22 21 22 20 18 13 8 7 6 4 3 2 3 4 4 7 10 9 4 4 9 12 10 5 3 3 2 2 9
70 62 53 54 56 48 38 32 29 32 36 38 36 28 38 72 96 101 88 64 52 45 33 29 26 15 15 18 12 21 61 96 102 99 101 101 99 101 102 100 97 97 93 67 33 22 24 13 10 24 34 39 43 40 40 47 46 41 37 29 24 23 20 16 11 8 7 6 5 4 3 4 6 7 10 13 10 7 8 11 11 7 4 3 3 3 2 3
72 67 53 50 58 52 39 36 32 32 39 40 33 33 59 94 102 97 93 77 58 49 40 34 30 22 20 26 24 21 39 78 101 100 99 101 100 99 101 101 99 100 101 83 49 29 27 18 11 24 35 35 36 39 48 60 63 56 50 43 34 27 20 14 11 11 10 7 5 4 3 4 10 13 12 12 15 18 15 10 7 5 4 2 2 4 3 2
72 80 67 51 59 59 42 36 35 34 42 39 34 51 82 101 101 99 100 87 65 52 46 41 35 31 31 32 33 32 34 58 92 103 99 99 101 99 100 102 100 99 101 93 68 46 36 23 13 27 46 48 45 48 53 64 73 68 58 49 41 34 27 21 20 19 16 11 8 6 4 6 15 23 21 18 22 23 16 11 8 5 4 3 2 4 4 2
66 80 80 64 65 64 46 38 36 38 44 38 40 71 96 100 100 99 95 84 70 60 53 48 42 38 37 34 35 37 33 42 74 98 100 98 100 100 99 100 100 99 100 97 84 66 47 26 15 31 57 61 54 55 59 64 72 72 62 51 43 41 39 33 29 26 19 14 12 8 5 7 17 28 32 29 26 21 14 14 14 9 7 6 3 3 4 2
64 68 74 76 78 66 46 41 39 41 44 36 46 77 90 90 97 97 90 84 77 70 61 55 52 45 39 36 35 38 35 34 52 83 99 100 99 100 100 100 100 100 100 99 95 82 55 28 19 35 56 59 52 55 61 63 64 64 63 60 53 49 47 43 37 29 20 16 14 10 6 11 21 34 40 37 30 24 19 17 18 17 14 11 6 3 3 3
75 70 63 71 82 68 49 44 39 41 45 35 43 71 82 88 101 99 92 89 83 75 66 63 60 48 37 36 37 41 41 35 38 62 88 99 100 99 99 100 100 99 100 99 98 89 65 38 26 33 47 52 50 58 68 67 60 54 55 62 62 56 53 48 40 33 27 22 17 12 10 15 28 40 46 43 34 28 24 18 18 22 20 16 12 7 3 2
82 86 75 70 76 68 53 46 38 40 45 36 40 68 85 93 101 100 98 97 88 75 69 70 64 47 35 33 33 37 41 38 37 47 71 93 100 99 99 100 100 100 100 100 98 93 79 54 30 27 43 53 56 67 74 70 63 55 51 56 62 60 56 51 43 39 35 27 20 18 14 17 30 43 48 46 38 35 35 28 21 21 19 16 13 10 6 3
77 92 97 86 78 66 54 49 43 42 45 37 39 62 84 94 99 100 98 98 96 87 76 71 61 44 38 38 34 31 32 34 35 38 57 85 99 100 99 100 100 100 100 100 98 96 88 66 34 25 45 63 69 75 75 69 67 63 55 55 61 62 58 53 48 44 40 33 27 26 21 18 28 42 50 49 43 43 45 35 23 18 16 12 11 10 7 4
74 84 98 97 86 70 58 54 49 46 46 38 34 51 74 87 95 97 93 90 94 93 83 69 53 42 42 45 38 29 26 30 35 35 47 73 95 100 100 99 99 100 100 100 99 98 95 75 39 26 49 71 75 76 74 70 69 66 58 56 60 63 61 56 50 46 45 40 34 32 31 26 25 33 43 48 46 47 46 35 21 16 14 11 10 10 7 4
78 80 92 101 92 72 63 61 54 51 51 39 32 46 65 73 74 83 96 96 87 86 85 70 49 40 43 42 36 31 29 31 37 37 39 59 86 99 100 100 99 99 100 99 99 100 98 79 44 32 57 77 77 79 83 79 72 65 60 60 62 64 64 59 52 48 48 47 41 37 38 39 35 29 29 33 37 41 40 28 15 12 11 11 10 8 5 4
78 79 90 101 88 67 66 69 62 57 55 44 34 41 59 70 67 71 91 99 88 81 79 64 43 40 48 48 42 42 41 38 42 43 37 47 73 93 100 100 99 100 100 98 100 100 100 86 54 41 63 79 78 85 94 89 75 66 64 66 66 67 68 63 55 49 50 52 48 41 41 48 49 40 31 28 27 28 27 18 12 11 11 10 9 7 4 3
Wind_Speed
20 20 20 20 20 20 20 19 19 19 19 19 18 18 17 16 16 17 17 17 16 15 13 12 12 11 11 10 11 11 12 13 15 18 20 17 15 13 12 15 14 14 15 13 13 14 13 13 13 13 13 13 14 14 14 13 11 11 10 9 9 8 8 7 4 2 3 2 3 4 4 4 4 5 7 6 8 11 7 4 4 3 2 0 0 1 1 1
20 20 21 21 21 21 20 20 20 19 19 19 19 19 18 17 17 17 18 18 18 16 15 14 13 13 12 12 12 12 12 13 15 19 18 13 13 16 16 17 15 14 15 14 15 17 17 15 14 13 13 13 13 13 13 13 13 12 11 11 9 8 8 7 5 1 2 2 4 4 3 4 4 4 5 6 10 10 5 4 4 3 3 2 1 0 0 1
21 21 21 21 21 21 21 21 20 20 20 20 20 20 19 18 18 18 19 19 19 18 17 16 15 14 14 13 13 12 13 14 16 19 16 13 16 18 18 17 16 16 16 16 17 19 21 19 16 15 14 14 13 13 14 14 14 13 13 12 10 8 7 7 5 2 1 2 3 3 3 3 3 3 5 7 10 8 3 4 5 4 4 3 2 1 0 0
23 23 23 23 23 22 22 22 21 21 21 21 21 21 20 19 19 19 19 20 20 19 18 17 16 16 16 15 14 14 14 16 18 18 15 15 18 19 19 18 17 19 19 18 18 19 22 20 17 16 16 15 14 14 13 14 14 14 14 12 10 9 7 7 6 3 2 2 1 1 0 1 3 3 4 7 8 6 2 2 3 4 4 3 2 2 1 1
25 25 25 25 24 24 24 23 23 23 22 22 22 22 21 21 20 20 20 20 20 20 19 18 17 17 17 17 16 15 15 17 19 17 14 15 17 20 21 21 20 21 20 19 19 20 20 19 18 18 17 16 15 14 14 14 14 14 14 12 12 11 9 8 6 4 3 3 4 4 4 3 4 3 4 5 5 4 2 1 2 3 3 2 3 2 1 1
27 27 27 27 27 27 26 26 25 25 24 23 23 23 23 22 22 21 21 21 21 21 20 19 18 18 18 18 18 16 16 19 20 17 15 15 18 21 23 23 22 22 21 19 20 21 20 18 19 18 18 18 16 16 16 16 15 15 15 14 14 13 12 9 5 5 6 6 6 6 5 4 3 1 4 5 3 3 4 3 2 2 2 2 2 2 1 2
29 29 29 29 29 29 29 29 28 27 27 26 25 25 25 24 23 22 22 22 22 21 21 20 19 19 19 19 19 18 19 19 18 18 18 17 19 21 23 23 23 22 21 20 21 22 20 18 17 18 19 18 17 18 18 17 17 16 16 15 15 14 12 9 6 6 6 6 6 6 4 3 2 1 5 5 3 2 2 3 2 3 3 3 3 2 2 2
29 30 30 30 30 30 30 30 30 30 30 29 28 28 27 26 25 25 24 23 23 22 22 21 20 19 19 20 19 20 22 19 17 20 22 19 19 20 21 22 23 23 23 23 23 23 22 20 18 19 19 18 19 20 20 19 17 16 16 17 16 15 13 11 10 7 4 6 7 7 6 4 4 3 3 4 3 2 1 2 3 3 2 3 4 3 3 3
30 30 30 31 31 31 31 31 31 31 31 31 30 30 30 29 28 27 26 25 25 24 23 22 21 20 20 20 19 22 23 19 18 21 22 21 20 20 20 21 22 24 25 25 24 24 23 20 19 20 19 20 22 22 22 20 17 16 17 18 20 18 15 14 13 10 6 7 8 8 10 8 7 5 3 2 1 1 1 3 3 3 3 4 5 4 5 4
31 31 31 32 32 32 32 32 32 32 32 32 32 32 32 32 31 30 28 27 27 26 25 23 22 21 20 20 19 24 25 21 20 21 22 23 21 20 21 21 21 23 25 26 25 23 21 20 22 22 23 25 24 24 25 20 17 19 20 21 22 20 17 15 14 13 11 9 9 10 11 10 9 6 6 4 2 2 1 3 3 2 3 4 4 5 6 5
31 31 31 32 32 32 33 33 33 33 33 33 33 33 33 33 33 33 32 30 29 29 27 25 24 22 21 19 20 26 26 22 21 22 23 24 23 22 22 22 21 22 23 24 25 24 24 24 25 26 27 26 25 26 25 20 19 22 23 23 22 20 19 18 15 13 12 11 11 12 14 12 11 8 8 5 2 2 1 2 1 2 4 4 4 5 5 6
31 31 31 32 32 32 33 33 34 34 34 35 34 34 34 34 34 34 34 33 32 32 30 28 26 24 22 19 23 28 27 23 22 22 22 24 25 24 23 23 23 22 22 23 24 26 27 27 29 28 26 25 26 27 24 21 21 22 24 23 21 20 20 18 16 14 13 13 14 16 16 14 13 10 8 5 3 3 1 2 1 3 4 4 4 5 5 6
32 32 32 32 32 32 32 33 33 34 34 35 35 36 35 35 35 35 35 35 35 34 33 32 29 27 23 20 26 30 27 24 22 21 22 25 28 26 24 25 25 24 22 23 25 27 29 30 30 27 27 28 28 26 24 23 23 23 24 23 21 21 19 18 18 17 15 14 15 16 15 13 14 11 6 6 4 3 2 1 3 5 4 4 4 5 6 7
33 33 33 33 33 33 33 33 34 34 34 35 35 36 36 36 36 36 37 36 36 36 36 35 32 30 24 21 30 32 26 24 21 21 25 28 29 28 27 26 26 25 24 24 25 27 29 31 31 30 31 29 27 27 27 28 28 27 26 25 24 21 17 16 20 20 17 15 16 16 13 13 16 13 8 8 6 4 4 3 5 6 4 4 4 5 5 7
35 35 35 35 34 35 34 34 34 34 34 35 35 36 36 37 37 37 38 38 38 37 37 37 35 33 27 24 33 33 27 25 23 27 30 30 30 28 28 28 27 27 26 26 26 27 29 32 33 33 30 29 30 30 28 29 29 27 26 24 22 19 17 17 20 21 19 17 18 16 12 14 19 15 10 10 8 7 6 6 8 7 5 4 4 4 5 6
37 37 37 37 37 37 37 36 35 35 35 35 36 36 36 37 36 37 38 39 40 39 38 38 36 36 31 29 34 35 31 29 27 30 30 29 30 29 29 29 27 28 28 28 28 28 30 32 32 32 31 32 33 30 29 30 29 27 24 19 17 16 17 18 18 19 20 21 21 18 13 13 19 17 11 11 10 8 8 8 9 6 5 4 4 4 4 4
40 40 40 40 40 39 40 39 38 38 38 37 37 37 37 37 36 36 37 38 40 41 41 39 38 37 34 33 36 35 35 33 30 29 28 28 30 30 29 29 29 29 29 30 30 30 31 31 31 32 33 34 33 31 32 32 28 25 22 18 17 16 17 19 17 15 18 22 23 19 14 13 19 19 14 14 13 9 9 9 6 4 5 5 4 4 3 4
42 43 43 44 43 43 43 43 41 41 41 40 39 39 38 38 37 36 36 38 39 41 42 41 40 39 36 36 37 37 37 36 33 29 28 29 30 31 30 29 31 31 32 33 32 31 31 31 31 33 34 35 34 33 32 27 24 22 20 18 18 17 18 19 17 15 15 19 20 19 16 14 19 21 17 16 13 11 11 9 6 4 5 8 6 4 3 4
42 43 43 44 45 45 45 46 45 44 44 44 43 42 41 39 39 37 37 38 39 40 42 42 42 40 37 37 39 40 40 39 37 32 30 30 31 32 31 31 33 33 34 33 32 32 32 32 33 33 31 29 29 29 27 25 25 23 21 21 20 17 16 17 17 17 16 15 17 19 18 15 19 21 18 17 13 11 11 10 9 4 5 9 7 5 3 2
43 43 43 44 45 46 46 47 47 47 46 47 47 46 45 43 41 40 38 39 41 41 41 42 42 40 37 38 41 41 41 42 40 37 34 34 34 34 34 34 34 36 35 32 31 32 33 36 35 28 23 22 25 27 28 28 28 26 24 24 22 19 17 17 17 18 18 17 16 18 16 13 17 18 16 18 16 12 11 12 9 5 4 7 7 7 5 3
46 46 45 45 45 46 46 47 48 48 48 48 49 49 48 46 44 43 40 40 45 44 40 41 42 39 35 37 43 43 42 44 43 40 38 37 38 38 37 36 35 35 32 31 33 34 37 37 29 21 21 23 25 28 30 30 30 29 26 25 25 23 20 20 18 17 19 18 17 15 13 11 16 17 17 20 20 13 10 10 9 6 4 5 7 8 7 4
48 48 47 47 47 47 47 47 47 48 49 49 49 50 50 49 48 46 43 42 46 46 42 42 42 39 35 35 43 45 44 44 44 43 42 41 42 41 39 38 36 33 31 34 37 38 40 32 21 21 25 26 27 29 31 31 32 31 29 27 27 25 23 24 24 20 19 17 15 14 12 10 15 18 20 21 19 15 10 9 10 9 7 6 6 9 9 6
48 48 48 47 47 47 47 47 48 48 48 48 49 49 50 51 50 49 47 46 47 47 46 46 43 41 37 36 44 47 45 45 45 45 45 44 43 43 42 40 37 33 34 38 38 39 35 22 19 27 29 28 29 30 31 32 34 34 32 31 28 24 24 27 26 24 21 17 14 13 11 11 16 21 24 22 18 16 15 12 13 14 10 7 9 9 10 8
48 47 47 46 45 46 46 46 47 48 48 48 49 49 50 50 51 50 49 50 51 50 49 49 46 44 40 39 45 48 46 46 46 46 46 46 45 45 45 43 40 37 37 38 37 37 30 21 25 32 31 30 30 30 32 34 35 35 34 32 27 23 23 25 25 26 26 22 17 15 14 16 22 27 28 25 21 17 15 15 17 17 13 11 12 9 9 9
47 45 44 44 42 41 43 44 43 45 47 48 47 48 50 50 51 51 50 50 51 52 52 51 49 48 46 43 45 49 48 46 46 46 47 48 47 47 47 46 44 41 39 38 38 36 30 27 32 34 33 33 32 32 32 32 33 35 35 31 26 23 22 25 28 30 30 27 21 20 23 24 26 30 30 28 27 21 16 17 18 19 17 16 14 9 8 9
43 42 40 40 37 35 37 38 38 40 42 44 45 45 46 48 49 51 51 49 50 51 53 53 51 51 49 46 47 49 50 47 45 47 48 49 49 48 49 49 47 45 42 41 41 38 32 31 36 37 35 34 33 33 32 31 33 34 32 29 27 26 25 27 31 34 33 28 24 24 25 26 28 31 32 29 27 22 17 16 16 17 17 16 14 10 8 8
38 36 34 34 33 31 32 33 34 35 35 36 39 41 42 43 44 47 47 46 47 50 51 52 52 51 50 50 50 50 51 49 46 47 48 47 48 49 50 51 50 48 46 45 45 41 34 35 38 38 36 34 34 34 31 31 32 29 26 29 31 30 28 29 32 36 33 28 29 29 24 24 29 32 31 28 26 23 20 18 16 16 15 14 14 11 10 8
33 32 32 34 35 34 33 32 32 32 32 31 33 35 36 36 38 41 42 41 43 45 47 48 49 50 51 51 51 51 52 50 47 47 47 47 47 48 49 51 51 50 49 48 46 40 35 36 38 37 37 36 33 29 28 31 31 26 24 30 34 34 32 31 34 36 33 32 36 35 29 29 32 31 29 29 29 29 26 21 18 16 14 13 14 12 10 9
34 35 35 37 38 38 37 34 31 30 30 29 29 31 31 31 32 35 36 37 38 41 43 44 44 47 50 51 52 53 55 53 50 49 50 50 49 48 49 49 50 51 51 50 47 42 39 38 38 38 38 36 32 28 29 33 31 26 26 30 34 36 36 35 37 37 37 39 40 37 35 36 35 32 31 33 34 32 26 20 17 16 14 14 13 12 12 13
35 35 35 35 36 36 36 35 32 31 30 29 30 30 30 30 31 32 32 32 34 36 38 39 40 42 45 49 53 55 56 56 56 54 54 53 51 49 49 47 48 51 51 52 51 47 43 41 42 42 39 37 34 31 32 33 30 27 29 31 34 39 39 38 39 39 42 46 42 38 36 37 37 35 34 35 35 29 22 18 16 14 14 14 12 12 14 14
33 34 34 34 34 34 34 34 34 33 33 32 32 32 31 32 32 31 31 31 32 32 31 34 37 38 41 47 52 55 56 57 58 59 58 57 54 52 52 50 49 52 54 55 54 52 49 48 47 44 40 39 38 36 34 34 32 32 33 33 36 41 43 44 44 45 50 51 44 39 37 38 39 37 35 35 33 28 23 19 16 13 12 12 11 11 12 11
33 35 35 35 35 35 34 35 35 34 34 34 34 33 33 33 33 33 32 32 33 30 27 29 32 35 42 47 51 55 57 56 57 59 62 61 59 57 55 54 52 54 57 58 57 56 52 50 48 46 43 42 41 40 38 37 36 36 36 36 39 43 47 49 49 51 55 53 45 41 40 41 42 38 36 36 33 30 26 22 19 17 13 10 10 12 13 12
35 36 36 35 34 34 34 35 35 35 36 36 37 37 36 35 35 35 33 33 34 32 27 26 27 33 41 46 49 54 56 56 56 57 60 62 62 59 55 53 51 52 54 54 56 58 54 50 50 48 45 44 44 43 43 42 41 39 39 39 41 44 49 53 53 53 56 53 45 42 43 45 45 39 34 34 33 31 28 24 21 20 18 13 11 12 14 14
36 36 36 36 35 33 34 35 35 36 37 38 38 39 39 40 39 37 37 36 34 33 29 27 26 32 41 44 48 53 53 54 56 57 60 61 61 60 57 51 47 47 49 51 54 56 55 53 51 50 49 48 46 45 43 40 39 38 37 36 37 39 42 46 49 51 51 50 45 44 46 48 47 40 32 31 32 31 29 26 23 23 24 19 14 14 17 17
38 37 37 37 35 33 34 34 34 35 36 37 37 38 39 39 39 38 38 37 35 33 31 30 28 32 41 45 48 52 52 52 54 56 60 61 59 60 62 55 46 43 45 48 51 53 55 54 50 49 50 48 45 43 41 40 40 38 36 36 37 36 35 38 44 47 47 47 45 46 49 49 46 41 35 33 34 31 30 28 25 27 27 22 17 15 19 19
41 40 38 36 32 31 31 32 34 36 37 37 37 38 39 40 40 38 37 35 34 33 33 32 30 32 42 47 48 52 53 51 53 56 58 60 59 60 64 63 58 55 53 52 52 52 54 56 52 48 49 47 44 42 41 42 41 39 39 40 37 33 32 35 38 41 44 46 45 46 49 49 46 41 38 38 35 33 34 31 27 27 27 24 20 16 18 18
42 41 38 35 32 30 31 33 34 36 37 37 37 38 40 42 42 38 35 32 31 31 31 31 31 31 38 47 49 51 54 53 53 56 58 58 59 59 62 64 63 61 60 59 58 56 58 60 56 52 50 48 45 42 42 42 42 41 40 38 34 33 33 34 35 38 42 45 44 45 46 47 45 39 37 40 39 37 37 34 29 29 28 27 24 19 18 17
43 41 37 34 33 31 32 34 35 35 36 38 38 39 40 42 40 36 32 30 28 28 27 28 30 30 33 45 52 50 52 55 55 57 58 58 59 59 60 62 62 61 61 61 59 57 61 64 60 57 53 48 45 43 43 44 43 41 38 36 36 36 37 37 37 39 40 41 42 42 42 43 43 36 32 38 41 39 38 37 33 32 31 31 28 22 19 18
41 38 35 34 33 32 34 35 36 36 37 39 40 41 41 40 37 34 29 27 27 26 25 25 28 30 30 39 52 52 51 56 58 58 58 59 61 59 57 59 60 60 61 62 60 56 60 64 61 58 54 48 44 45 47 47 45 43 41 39 38 38 37 37 37 37 37 39 38 37 37 37 36 32 30 34 37 37 39 39 36 34 31 32 32 24 19 20
38 36 34 33 33 33 35 36 37 38 39 41 42 43 41 37 33 30 25 24 25 24 24 23 24 29 30 33 48 55 53 55 60 61 59 59 61 59 58 58 58 57 58 62 63 58 59 64 61 57 56 50 44 46 49 48 46 46 46 45 42 41 39 37 36 36 36 37 36 34 33 30 26 25 25 26 28 30 33 32 31 31 29 29 32 25 19 21
35 34 33 32 33 34 36 37 37 38 40 42 43 43 38 32 28 26 22 21 23 23 22 22 22 25 29 30 41 54 56 56 61 62 60 58 59 59 58 59 59 57 56 60 64 62 60 65 64 57 56 54 50 48 48 46 45 45 46 45 43 42 41 40 40 39 36 37 35 31 28 23 21 22 22 21 21 23 25 26 26 27 26 27 29 25 20 24
33 33 33 32 32 35 36 37 38 38 41 42 42 39 32 26 26 25 22 19 20 21 21 22 22 22 26 29 34 46 56 58 60 62 61 58 58 59 59 60 60 58 56 57 62 64 62 65 63 56 54 55 54 51 47 42 42 43 42 41 41 43 43 42 41 38 36 36 31 27 25 20 19 23 23 21 20 22 24 25 25 26 26 25 27 24 22 24
32 32 33 33 32 34 36 37 37 39 41 42 40 34 26 21 23 24 22 19 19 21 20 21 21 21 25 29 30 37 49 58 60 61 60 58 57 58 59 61 61 60 58 57 60 63 62 62 62 56 53 53 54 54 50 41 38 41 42 40 40 42 41 40 38 35 33 32 28 26 26 21 18 21 22 20 20 21 23 24 24 25 24 24 24 23 23 25
31 31 33 34 34 35 37 36 37 39 41 41 36 28 22 19 21 21 20 20 19 20 20 20 21 22 23 26 27 31 40 54 61 60 59 57 55 56 59 61 62 61 61 59 59 61 61 62 62 57 51 50 51 53 51 44 39 39 40 40 40 40 39 39 38 35 33 31 27 28 28 22 19 20 19 18 19 21 22 22 23 23 22 20 20 20 23 25
32 29 31 34 35 36 38 39 39 40 41 39 30 23 19 18 19 19 18 19 19 19 19 20 21 21 23 24 25 28 33 45 57 60 59 55 53 54 57 61 62 62 63 63 61 61 62 64 64 57 51 50 51 51 50 47 42 38 37 39 42 42 41 41 39 38 37 33 29 31 29 23 22 22 17 16 19 21 22 19 19 20 19 17 17 18 21 23
34 30 31 34 35 37 39 40 41 40 40 37 26 20 19 17 17 17 17 17 18 18 18 20 21 21 23 25 24 25 28 36 49 59 61 56 52 52 55 59 61 63 65 66 64 62 63 65 65 61 56 54 54 53 51 50 48 43 39 38 40 43 43 41 39 39 38 34 32 32 27 23 23 19 14 16 19 20 21 18 16 16 14 13 13 15 19 21
34 32 32 34 35 37 39 40 40 40 40 36 24 18 17 15 14 15 16 16 17 18 17 18 20 21 23 24 23 23 24 30 41 53 60 58 53 51 51 55 60 63 66 68 66 63 64 66 66 65 61 58 55 53 51 50 50 48 43 38 38 42 44 42 40 38 35 34 34 31 26 25 25 17 12 16 20 21 21 18 16 15 12 10 10 12 17 20
33 31 33 35 35 36 38 38 38 39 39 35 24 17 14 13 12 13 14 15 16 18 17 16 19 21 23 24 22 22 23 26 32 44 57 60 56 51 47 51 58 62 65 69 68 65 64 66 68 67 63 58 55 52 51 51 50 49 47 40 37 41 45 44 41 37 35 35 34 30 26 27 28 21 14 16 20 20 19 20 20 19 15 13 11 11 15 17
34 29 31 34 35 37 38 37 37 38 37 34 25 17 13 12 11 11 12 14 15 17 17 17 19 20 21 22 22 21 23 25 27 35 50 60 58 51 44 46 55 62 66 69 69 67 66 66 68 68 64 59 56 54 53 54 51 49 47 41 35 38 43 44 40 36 35 34 30 28 26 28 31 27 21 19 23 22 22 24 26 24 20 16 12 11 14 17
35 29 29 33 35 37 38 38 37 36 36 34 26 16 12 11 9 10 11 13 14 16 17 18 18 18 18 20 22 22 22 25 25 28 44 58 60 53 43 41 48 57 66 70 69 68 68 67 68 68 64 60 58 55 52 53 51 49 47 42 36 34 38 43 43 38 34 33 29 27 26 25 29 32 31 30 31 29 28 29 29 27 24 18 13 12 15 18
37 30 28 31 34 36 38 38 37 35 34 33 28 17 13 11 10 10 11 14 16 17 17 18 18 17 17 19 21 21 21 23 23 24 37 54 61 56 46 40 41 49 63 71 71 69 69 67 68 68 66 62 58 52 47 47 48 46 44 42 39 34 32 38 44 40 33 29 27 27 27 23 25 31 36 39 40 37 35 34 30 29 26 20 15 14 13 16
39 32 28 29 32 34 36 37 36 34 32 32 28 19 13 12 11 11 11 13 15 16 16 17 17 15 15 17 19 19 19 20 21 22 31 47 59 59 50 41 39 45 56 67 72 70 69 67 67 69 68 63 58 50 44 43 45 46 46 45 44 40 33 34 43 43 34 29 25 25 27 25 25 29 34 40 42 41 39 36 31 29 26 20 17 15 13 14
Wind_Direction
294 293 292 292 291 290 289 289 289 288 288 288 288 287 286 285 282 281 278 277 275 274 273 271 269 266 259 253 250 244 241 239 237 234 231 225 223 229 228 227 226 218 222 222 215 220 228 229 227 225 218 216 210 198 193 191 196 203 211 217 214 222 219 224 251 146 149 154 113 113 105 97 100 92 81 79 76 72 73 78 67 58 55 26 337 36 93 194
293 293 292 292 291 290 289 288 287 286 285 285 285 285 285 284 282 280 278 276 274 271 269 267 266 264 261 254 249 245 241 238 238 237 234 230 231 234 230 229 232 227 222 218 212 212 218 223 221 220 217 215 210 199 191 187 195 203 213 221 219 222 217 231 257 174 152 146 120 117 84 90 101 81 73 71 75 77 72 69 70 70 68 47 34 5 155 177
292 291 291 291 291 291 290 289 287 285 284 283 282 282 282 282 281 279 278 276 274 271 266 264 262 261 260 256 248 244 242 240 239 237 236 235 234 235 233 232 233 230 224 220 217 213 216 222 221 217 216 214 210 205 196 191 197 203 213 221 221 226 227 228 225 196 173 154 136 122 88 95 84 37 45 59 74 86 85 74 89 98 82 63 55 42 327 155
288 289 288 289 289 289 289 288 287 286 284 282 281 280 279 279 279 278 277 276 275 272 267 262 259 258 258 257 250 244 241 243 241 236 234 235 234 233 232 228 226 228 226 224 222 220 222 227 227 223 222 219 215 212 205 200 201 205 214 218 222 225 222 217 216 223 242 226 192 134 11 55 52 19 32 62 81 91 96 87 101 94 80 74 72 65 39 19
285 285 285 285 285 285 286 286 286 285 285 284 282 280 278 277 276 276 275 275 274 273 270 264 259 256 255 255 252 245 240 244 244 237 232 236 234 232 233 229 224 226 226 226 226 226 228 229 229 229 230 229 225 221 217 212 207 208 213 212 220 225 215 212 215 211 224 249 271 297 307 3 53 42 46 71 86 102 141 125 99 92 74 69 73 74 69 53
283 282 282 281 281 282 282 282 282 282 282 282 281 280 279 277 275 273 273 273 273 272 271 267 260 255 253 253 251 247 240 242 246 242 232 232 232 228 230 230 227 227 226 227 228 230 230 226 226 230 232 235 234 229 225 221 213 210 211 210 213 220 219 216 211 209 218 240 265 284 303 352 15 72 91 89 79 114 130 96 67 59 29 36 65 68 74 85
282 281 281 280 279 279 279 278 278 278 279 279 279 279 278 277 275 273 271 271 271 271 270 268 263 257 252 250 250 248 243 240 245 246 234 229 233 231 229 229 229 230 228 227 229 232 231 226 223 224 227 233 235 232 230 225 220 214 210 212 213 213 217 214 202 200 209 227 244 255 266 313 298 202 116 112 113 145 123 84 57 10 2 37 57 45 40 77
282 281 280 279 279 278 277 276 276 275 275 275 275 275 276 275 275 274 271 269 269 269 268 268 265 260 254 250 248 247 245 239 238 243 237 229 233 236 233 232 230 229 227 227 227 228 229 223 217 219 223 227 228 230 231 226 223 220 213 211 212 209 207 205 201 192 187 220 229 238 250 257 248 228 143 133 140 169 21 57 56 17 18 47 46 36 25 36
283 282 281 280 279 278 277 276 274 274 273 272 271 271 272 272 272 272 271 270 268 267 265 265 264 261 257 252 247 246 245 238 232 239 241 233 230 235 235 235 233 230 227 227 227 227 228 223 217 217 218 221 223 227 231 227 220 221 219 214 214 209 200 199 206 212 211 216 221 236 251 250 239 219 158 154 175 166 68 47 34 19 26 34 36 31 23 28
284 283 281 280 279 278 277 275 274 273 272 271 270 268 268 268 269 269 269 269 268 267 265 262 261 261 259 255 250 247 244 237 232 236 241 237 229 230 234 234 234 234 231 229 228 228 228 225 220 216 215 216 218 225 231 227 217 218 220 218 217 211 201 199 206 215 216 212 218 237 246 247 243 214 161 167 218 205 120 30 11 359 357 5 20 25 27 35
286 285 283 282 280 278 276 275 274 272 271 270 269 268 266 266 266 266 266 265 266 266 266 263 260 258 257 256 253 249 244 236 232 234 240 241 234 229 232 234 234 235 234 232 230 227 225 223 221 217 217 217 216 223 229 226 217 220 224 224 221 214 205 204 205 210 216 215 218 234 242 242 242 214 173 173 197 212 177 56 21 328 323 333 9 25 33 37
289 287 286 284 282 280 278 276 274 272 270 269 268 267 265 265 264 263 263 262 262 263 264 263 260 257 254 254 253 249 245 238 231 231 237 242 238 230 228 232 233 234 233 233 230 227 225 223 223 221 219 219 218 222 226 226 223 223 228 231 228 221 211 205 204 205 212 219 219 229 237 240 243 222 176 169 189 199 158 91 323 306 303 314 359 18 31 35
292 290 288 286 284 282 280 278 276 273 271 269 267 265 264 263 263 262 261 260 259 259 260 260 260 257 252 251 252 250 246 241 234 231 234 239 240 233 227 227 230 232 231 232 229 227 227 226 227 224 220 220 220 222 219 219 223 224 229 232 230 227 218 206 202 202 205 217 222 225 235 242 245 240 192 162 161 177 191 220 290 304 300 300 331 358 19 29
295 293 291 289 287 284 282 280 278 276 273 271 268 265 263 262 261 260 260 259 258 257 257 257 257 256 252 247 251 251 246 242 237 234 232 234 238 235 230 227 226 230 229 230 230 228 228 229 228 224 222 220 221 224 220 216 218 220 224 226 225 223 220 209 201 201 201 211 224 226 232 241 244 243 210 177 164 177 197 233 275 293 295 287 315 351 14 21
298 296 294 291 289 287 284 282 280 278 275 273 271 268 265 262 260 259 258 258 257 255 255 254 253 254 249 242 249 253 248 241 233 231 230 231 236 234 232 230 226 227 228 228 230 229 229 229 230 228 226 223 222 224 224 224 224 222 223 225 223 216 211 208 202 202 201 205 222 225 221 237 246 242 214 186 171 178 203 243 260 274 279 270 300 341 8 15
298 297 295 293 291 289 287 284 282 280 277 275 273 270 267 264 261 258 258 257 256 255 253 252 251 251 246 238 245 252 249 243 234 232 232 234 238 236 233 232 229 228 228 229 229 229 230 229 230 230 228 225 225 224 225 229 230 230 231 229 228 216 205 207 206 204 201 202 213 215 205 229 246 244 228 203 189 193 208 227 243 259 275 275 289 319 355 12
298 297 295 293 291 290 288 285 283 281 279 276 273 272 269 266 263 260 258 256 256 255 253 252 250 248 244 239 242 247 249 247 240 235 233 233 238 238 234 232 232 230 228 228 228 228 231 231 230 229 228 228 229 226 225 230 232 233 236 232 229 220 207 207 205 202 207 211 213 209 199 220 243 244 235 217 208 204 188 185 207 241 274 286 291 310 340 6
298 296 294 293 291 290 288 286 284 282 280 278 275 272 270 268 265 262 260 257 255 254 253 251 249 246 243 241 241 242 245 247 243 238 236 236 238 241 238 232 231 231 228 228 227 228 230 231 231 229 228 228 229 229 230 234 238 238 236 233 230 224 213 209 204 199 213 222 218 209 198 209 239 246 243 231 214 193 175 168 176 209 288 298 293 306 327 358
298 295 294 292 290 288 287 285 283 282 280 278 276 273 270 268 266 263 261 260 257 254 253 250 248 246 243 241 240 239 240 243 243 237 235 237 238 240 240 235 232 232 231 229 228 229 230 231 231 230 230 232 234 236 236 235 236 235 231 227 227 223 214 210 207 202 206 218 219 212 200 206 237 248 253 253 236 203 181 165 161 180 297 295 280 282 297 344
298 296 293 291 289 287 284 283 282 280 278 277 276 274 272 268 266 264 261 262 260 255 252 252 249 245 243 242 241 238 237 239 240 237 232 233 236 237 237 235 233 233 232 231 230 231 231 231 231 231 235 239 239 238 236 232 230 230 225 221 220 217 207 203 207 209 203 199 201 201 192 205 237 248 256 261 254 220 175 160 167 189 270 277 277 282 285 296
299 296 294 292 290 287 285 282 280 278 276 274 273 273 271 269 267 264 261 262 263 257 252 252 251 246 243 242 242 238 236 237 237 236 232 232 234 235 235 236 235 235 234 234 233 232 231 231 230 231 233 232 233 234 233 230 229 229 225 219 216 211 200 193 196 212 216 199 184 182 175 203 243 256 259 256 250 229 171 164 188 197 212 245 276 290 288 282
300 298 296 294 292 289 286 284 281 278 276 273 271 270 269 268 266 264 260 258 258 258 255 252 249 245 241 240 242 239 235 235 235 235 233 231 233 235 236 236 237 236 235 234 233 232 234 232 227 228 229 227 226 228 228 227 227 227 224 220 216 209 198 192 187 194 214 207 188 183 178 211 253 268 267 261 253 241 212 197 204 202 208 230 261 288 294 286
302 300 298 296 295 292 289 286 283 280 277 274 271 269 267 266 265 264 261 257 254 256 256 254 250 245 239 237 241 239 233 233 233 233 233 231 231 234 236 235 235 235 234 235 235 235 237 233 227 229 228 227 226 226 225 224 223 223 222 220 215 206 201 201 191 180 193 202 196 195 192 217 250 263 267 267 265 250 231 222 217 208 205 217 239 271 289 285
304 303 301 299 298 296 293 291 288 285 281 277 274 271 267 264 262 261 260 258 256 254 254 254 252 248 241 235 238 239 234 231 230 230 232 231 230 232 234 235 234 232 232 236 238 238 234 222 222 228 227 226 226 225 225 223 220 219 220 219 213 204 203 208 197 181 187 195 195 208 217 219 233 250 262 269 270 259 236 227 221 212 205 213 229 252 277 279
308 307 305 302 302 301 298 295 294 290 286 282 279 275 271 266 262 258 255 255 255 254 253 252 250 249 245 237 237 239 236 232 230 230 230 230 230 229 231 233 233 231 230 233 236 237 230 220 222 226 224 223 224 225 226 226 223 220 218 216 210 204 202 205 195 183 187 192 190 208 226 224 224 241 256 264 265 260 246 233 221 213 208 210 221 236 259 271
313 312 311 308 306 306 303 301 299 296 292 288 285 281 277 272 267 261 257 255 252 250 252 251 249 248 246 241 237 238 237 233 230 230 228 228 229 228 228 230 230 230 229 230 233 232 226 220 223 226 224 222 223 223 224 225 225 222 218 213 210 206 202 202 196 188 189 191 189 202 221 224 222 234 248 256 259 258 251 239 224 217 212 208 210 220 239 259
319 318 317 313 311 311 308 306 305 301 298 295 291 288 285 281 276 267 262 261 255 249 249 250 249 247 245 242 238 237 238 234 230 229 228 228 228 227 227 228 228 228 228 228 229 227 223 222 224 225 225 223 223 223 224 227 227 222 215 211 209 208 203 200 201 198 191 187 191 196 208 223 226 234 244 251 255 258 257 253 244 235 226 212 203 211 236 251
322 320 319 315 313 311 309 309 308 304 301 299 297 295 292 289 284 275 270 268 260 251 249 248 247 245 244 242 238 235 235 233 229 227 227 227 227 227 227 228 228 228 228 228 228 225 222 224 227 227 226 225 224 223 225 229 229 221 212 211 209 207 204 199 204 204 191 189 196 194 198 217 227 233 242 249 253 256 260 262 258 253 244 226 211 213 234 247
321 319 317 315 312 311 309 308 307 304 301 299 298 297 295 293 290 283 279 275 264 253 248 246 244 242 241 240 237 233 231 228 223 221 222 223 223 223 224 226 227 228 228 228 227 224 221 222 225 226 225 225 223 219 221 227 226 218 213 212 207 207 204 200 205 203 194 196 199 192 195 209 221 227 234 243 248 252 258 263 265 266 260 245 225 219 232 246
323 322 322 321 319 317 314 311 308 304 300 297 295 293 292 291 290 287 284 279 267 257 249 244 241 239 237 235 234 231 229 227 223 219 219 219 219 220 220 222 225 226 226 227 226 223 219 218 221 223 221 220 220 216 218 224 223 216 213 211 206 206 204 201 203 202 202 205 200 192 197 205 212 219 226 235 244 251 257 260 266 271 265 253 238 227 232 240
330 329 329 328 327 325 322 318 315 310 306 302 299 296 293 291 289 288 287 282 272 262 253 245 239 235 233 230 230 230 228 225 223 220 219 216 215 216 216 217 219 221 221 223 224 222 218 215 217 220 218 217 217 214 214 219 220 215 212 209 206 205 203 202 201 201 208 211 201 193 199 207 213 215 218 229 241 248 249 249 258 271 270 256 237 220 211 211
330 327 326 325 324 324 322 319 316 314 311 309 306 301 297 292 289 286 286 286 280 270 259 250 240 233 232 229 227 228 226 221 219 219 221 220 217 215 215 215 216 219 220 219 221 222 219 216 217 217 217 217 216 213 211 214 216 214 211 208 206 204 203 204 202 203 210 212 202 195 202 215 221 218 214 220 231 237 239 242 252 264 267 247 218 197 184 189
328 325 323 321 320 319 316 313 313 313 311 310 308 304 300 294 289 285 282 281 280 276 268 258 244 233 233 230 225 224 223 218 215 215 218 220 219 216 214 215 216 219 220 221 223 223 218 216 217 216 216 217 217 213 211 212 214 212 211 211 209 206 206 207 206 206 212 213 205 201 210 222 229 228 222 220 225 230 234 238 242 250 253 239 216 200 188 189
327 325 324 323 322 318 313 310 311 313 312 310 307 303 299 294 290 286 281 278 277 276 273 265 249 233 230 229 224 220 218 214 210 210 211 213 215 214 211 210 211 216 220 222 225 223 219 216 215 216 216 216 217 215 212 214 216 216 215 217 219 218 216 216 215 215 217 217 208 205 217 229 232 234 235 226 222 227 233 234 230 234 242 240 230 213 195 189
325 324 324 324 323 319 315 315 317 316 313 312 309 305 302 298 294 288 282 277 274 272 268 263 254 235 226 227 224 218 214 209 206 204 205 208 210 211 210 206 204 209 217 220 220 221 220 215 212 217 218 216 217 217 214 213 216 216 215 218 221 223 224 223 223 224 224 222 215 210 221 231 232 235 236 224 218 224 233 236 228 225 231 237 236 213 192 186
326 325 325 325 324 320 319 321 321 319 317 316 314 311 308 305 300 293 284 276 268 263 258 255 254 241 226 223 222 218 212 206 202 200 200 203 205 207 210 208 205 207 212 214 213 216 218 212 208 214 217 215 215 217 216 215 216 214 214 218 221 222 224 223 223 226 227 227 224 220 224 230 232 234 232 225 222 225 233 240 238 231 230 236 240 225 206 197
327 326 326 327 324 321 322 323 322 320 319 317 313 309 306 302 299 294 285 274 262 254 250 247 248 245 231 220 217 215 211 204 198 195 197 199 201 204 206 207 207 207 209 210 209 213 215 209 206 210 213 213 213 214 216 216 216 216 215 218 219 217 219 221 222 224 225 228 229 226 227 230 232 234 231 228 228 230 234 242 246 242 239 241 245 242 235 223
326 326 328 327 323 321 323 324 322 322 320 317 314 310 304 299 295 289 279 269 259 251 248 245 244 247 239 224 215 209 206 204 196 191 194 196 198 201 203 205 206 207 208 209 207 210 211 209 206 206 208 209 211 211 214 214 215 217 218 216 215 216 218 219 219 222 224 227 228 227 228 230 233 234 231 230 232 234 237 243 247 247 247 249 250 245 241 233
327 328 329 326 321 321 325 325 323 323 322 320 317 312 306 300 293 285 275 264 257 250 247 247 246 249 249 233 222 210 200 200 197 191 192 195 196 198 200 203 206 207 208 209 208 208 210 210 206 204 204 204 207 210 211 211 212 213 215 214 214 219 223 223 224 225 226 227 229 229 228 228 229 230 229 230 233 235 238 243 248 249 248 250 250 243 232 224
328 327 328 325 322 324 327 325 324 325 324 323 319 313 308 301 290 281 271 256 251 250 248 251 252 253 256 246 231 219 203 195 196 193 192 194 195 196 197 201 203 204 205 207 208 207 209 211 206 203 203 199 199 207 209 210 212 212 213 212 210 213 217 220 225 227 229 230 230 230 229 224 223 224 224 227 230 230 232 237 242 245 243 242 243 237 220 206
328 325 326 326 326 329 328 326 327 326 326 324 320 315 311 303 290 278 265 249 248 252 253 255 260 262 263 258 241 228 214 200 194 194 192 193 195 195 196 199 201 202 204 206 207 206 208 210 205 202 205 200 197 203 206 209 215 217 218 216 212 213 214 215 219 221 225 231 232 232 230 221 216 219 218 218 220 218 217 220 227 235 235 232 232 226 204 194
328 324 327 329 331 331 330 328 329 328 328 327 321 316 313 305 293 279 263 249 247 252 257 259 264 267 268 264 249 237 228 213 198 193 192 192 194 195 196 197 198 200 201 203 206 206 207 209 206 202 206 204 200 201 202 207 217 221 223 222 219 218 217 217 220 220 222 227 229 233 230 218 214 218 213 208 209 207 205 209 220 227 226 222 220 212 195 192
330 327 330 332 332 333 332 331 330 330 331 329 321 313 308 301 293 281 267 256 249 250 255 259 263 268 271 267 255 246 239 225 207 196 192 191 193 194 195 196 197 198 199 201 203 205 206 208 206 203 204 206 202 200 199 201 212 220 222 222 222 223 222 224 225 226 227 228 226 227 225 215 216 224 217 206 202 201 200 204 214 223 223 219 215 204 192 192
334 331 331 332 333 334 334 333 332 333 333 330 320 307 298 291 287 279 265 255 251 250 252 257 263 268 273 272 264 259 249 233 217 205 196 191 191 192 193 194 196 197 199 199 200 203 204 205 205 201 199 201 199 198 198 196 203 215 219 219 220 223 225 226 225 224 225 224 222 224 223 211 212 224 222 210 205 203 203 202 208 220 224 221 217 203 194 195
337 334 333 332 334 335 335 335 334 334 335 332 319 301 292 287 279 271 258 250 250 252 254 258 263 268 274 277 273 269 260 241 227 215 205 196 188 188 191 192 194 197 198 198 198 201 201 202 203 198 193 194 194 194 196 196 197 205 212 215 217 220 222 223 222 221 220 216 213 218 219 209 211 221 216 207 210 212 212 205 203 215 222 221 217 206 198 198
339 337 336 333 335 336 336 336 336 336 337 336 321 298 294 289 275 264 253 249 250 251 255 260 264 272 279 281 278 274 268 251 234 223 214 204 189 184 187 190 192 196 198 198 198 199 199 200 201 196 190 192 193 192 195 198 197 198 203 209 214 218 219 220 221 222 221 217 213 215 213 204 209 215 202 200 213 223 223 208 194 204 215 218 218 209 201 200
342 340 339 336 337 339 337 337 338 337 340 340 326 304 302 295 276 263 255 254 253 251 255 264 270 278 283 283 280 276 271 259 242 230 222 210 194 183 183 187 191 195 197 198 197 197 198 199 199 195 191 192 193 190 193 198 199 199 199 201 207 213 216 218 220 221 222 220 216 214 209 201 201 199 189 202 218 230 233 222 204 206 216 220 221 213 205 202
345 343 340 337 340 341 339 338 339 339 341 342 330 310 310 301 277 262 257 259 260 257 259 269 279 285 285 283 282 278 272 263 250 237 227 215 198 185 181 184 190 194 196 197 197 196 197 198 198 195 191 190 189 187 192 198 200 201 199 195 198 206 211 217 220 220 221 221 217 214 210 200 195 191 186 206 221 225 229 230 226 227 230 227 224 218 213 207
347 346 341 338 339 342 340 339 340 340 342 344 333 313 312 309 283 265 260 259 261 262 266 275 285 288 284 281 283 284 277 268 257 243 231 218 201 187 180 180 187 194 197 197 196 197 197 198 197 193 188 185 184 185 192 197 199 202 201 194 192 200 207 213 218 218 220 221 217 215 214 203 194 191 187 202 219 219 219 228 234 238 239 232 224 221 217 211
349 348 344 339 339 342 340 340 342 342 343 346 340 318 310 313 293 274 270 265 263 265 269 278 285 284 279 279 282 285 282 274 267 250 234 220 205 191 181 176 181 191 198 199 198 197 198 197 195 191 185 182 182 185 192 197 199 202 201 197 195 202 206 209 212 214 216 218 215 212 214 207 199 197 195 203 216 219 221 228 234 239 241 236 226 222 216 211
350 349 348 342 339 341 341 340 343 344 344 349 346 328 307 304 290 273 271 271 272 271 270 277 284 281 277 279 283 286 283 278 276 260 237 223 211 198 186 177 176 184 195 201 201 199 198 198 194 188 182 180 180 183 189 196 199 201 201 200 200 204 208 207 207 208 208 210 212 208 206 207 206 204 205 209 215 219 222 228 235 239 241 236 225 221 215 208
351 351 350 343 340 342 342 342 345 346 346 351 350 336 312 300 288 274 272 275 277 277 273 275 282 281 279 282 286 289 284 279 279 268 242 226 217 205 192 183 176 177 188 199 202 200 198 198 194 185 181 179 178 181 187 190 195 198 198 200 201 203 208 205 202 203 199 197 204 205 199 201 209 211 211 214 217 220 222 226 230 235 236 231 223 218 211 204